Flag for Norway Weather past 2 weeks in Spydeberg, Norway

Now
66 °F

Sunny.


Feels Like: 66 °F
Forecast: 50 / 67 °F
Wind: 13 mph from South

Location: Rygge

Current Time: Aug 30, 2015 at 6:27:59 PM

Latest Report: Aug 30, 2015 at 5:50 PM


Visibility: 10 mi

Pressure: 30.07 "Hg

Humidity: 68%

Dew point: 55 °F

Location of SpydebergLocation

Historic Weather in Spydeberg — Graph

°F

Spydeberg temperature yesterday

Maximum temperature yesterday: 66 °F (at 12:50 PM)
Minimum temperature yesterday: 54 °F (at 6:20 AM)
Average temperature yesterday: 60 °F

Past Weeks' High & Low Weather Summary

 TemperatureHumidityPressure
High77 °F (Aug 23, 2:50 PM)100% (Aug 21, 5:20 AM)30.39 "Hg (Aug 21, 5:20 AM)
Low45 °F (Aug 22, 5:20 AM)32% (Aug 23, 3:20 PM)29.53 "Hg (Aug 27, 2:20 PM)
Average63 °F73%30.05 "Hg
* Reported Aug 15 4:20 PM — Aug 30 4:50 PM, Spydeberg, Weather by CustomWeather, © 2015

Note: Actual official high and low records may vary slightly from our data, if they occured in-between our weather recording intervals... More about our weather records

Advertising

Spydeberg weather history for previous 24 hours

 ConditionsComfort  
Time TempWeatherWind HumidityBarometerVisibility
4:50 PM
Sun, Aug 30
66 °FSunny.15 mph64%30.07 "Hg10 mi
4:20 PM64 °FSunny.13 mph68%30.07 "Hg10 mi
3:50 PM68 °FPassing clouds.13 mph56%30.07 "HgN/A
3:20 PM68 °FSunny.14 mph56%30.07 "Hg10 mi
2:50 PM68 °FPassing clouds.12 mph56%30.07 "HgN/A
2:20 PM66 °FSunny.13 mph60%30.07 "Hg10 mi
1:50 PM68 °FPassing clouds.10 mph53%30.07 "HgN/A
1:20 PM68 °FPassing clouds.8 mph56%30.07 "HgN/A
12:50 PM66 °FPassing clouds.9 mph56%30.07 "HgN/A
12:20 PM66 °FPassing clouds.8 mph56%30.07 "HgN/A
11:50 AM64 °FPassing clouds.7 mph56%30.07 "HgN/A
11:20 AM64 °FPassing clouds.7 mph60%30.07 "HgN/A
10:50 AM64 °FSunny.3 mph60%30.07 "Hg10 mi
10:20 AM63 °FPassing clouds.7 mph64%30.07 "HgN/A
9:20 AM61 °FPassing clouds.6 mph72%30.07 "HgN/A
8:50 AM59 °FPassing clouds.5 mph77%30.07 "HgN/A
8:20 AM59 °FPassing clouds.5 mph82%30.04 "HgN/A
7:50 AM57 °FPassing clouds.6 mph82%30.04 "HgN/A
7:20 AM57 °FSunny.6 mph82%30.04 "Hg10 mi
6:50 AM54 °FClear.7 mph94%30.04 "Hg10 mi
6:20 AM54 °FClear.5 mph88%30.04 "Hg10 mi
5:50 AM54 °FPassing clouds.2 mph88%30.04 "HgN/A
5:20 AM55 °FPassing clouds.2 mph88%30.04 "HgN/A
4:50 AM55 °FPassing clouds.6 mph88%30.04 "HgN/A
4:20 AM55 °FPassing clouds.5 mph88%30.04 "HgN/A
3:50 AM57 °FPassing clouds.3 mph82%30.04 "HgN/A
3:20 AM57 °FPassing clouds.5 mph82%30.04 "HgN/A
2:50 AM57 °FPassing clouds.6 mph82%30.04 "HgN/A
2:20 AM57 °FPassing clouds.6 mph82%30.04 "HgN/A
1:50 AM57 °FCool.7 mph82%30.04 "HgN/A
1:20 AM57 °FCool.7 mph82%30.04 "HgN/A
12:50 AM59 °FPassing clouds.7 mph77%30.04 "HgN/A
12:20 AM59 °FPassing clouds.7 mph82%30.04 "HgN/A
11:50 PM
Sat, Aug 29
59 °FPassing clouds.8 mph77%30.04 "HgN/A
10:50 PM59 °FPassing clouds.9 mph82%30.04 "HgN/A
10:20 PM59 °FClear.9 mph82%30.04 "Hg10 mi
9:50 PM59 °FPassing clouds.7 mph82%30.04 "HgN/A
9:20 PM61 °FPassing clouds.7 mph77%30.04 "HgN/A
8:50 PM61 °FPassing clouds.7 mph77%30.04 "HgN/A
8:20 PM61 °FScattered clouds.7 mph83%30.04 "HgN/A
7:50 PM63 °FScattered clouds.13 mph73%30.04 "HgN/A
7:20 PM63 °FPassing clouds.12 mph77%30.04 "HgN/A
6:50 PM63 °FPassing clouds.13 mph77%30.04 "HgN/A
6:20 PM63 °FSunny.14 mph73%30.04 "Hg10 mi
Weather by CustomWeather, © 2015

See weather overviewHow to use our weather pages